Location: Casilda
(33.0440°S, 61.1680°W)
Time: 10:24:15
(UTC-03:00)

ISS - Pass Details

Date: 20 September 2023
Orbit: 413 x 421 km, 51.6° (Epoch: 26 September)

Event Time Altitude Azimuth Distance (km) Brightness Sun altitude
Exits shadow 06:24:54 10° 278° (W) 1,535 -1.6 -7.6°
Reaches altitude 10° 06:24:57 10° 278° (W) 1,521 -1.6 -7.6°
Maximum altitude 06:27:56 27° 217° (SW) 852 -2.5 -7.0°
Drops below altitude 10° 06:30:57 10° 156° (SSE) 1,534 -0.5 -6.3°
Sets 06:33:16 0° 144° (SE) 2,405 0.7 -5.8°
